Location: Palmerston North
(40.3500°S, 175.6170°E)
Time: 12:46:03
(UTC+12:00)

ISS - Visible Passes

Search period start: 17 May 2021 00:00
Search period end: 27 May 2021 00:00
Orbit: 417 x 422 km, 51.6° (Epoch: 16 May)

Date Brightness Start Highest point End Pass type
(mag) Time Alt. Az. Time Alt. Az. Time Alt. Az.
19 May -0.5 06:27:26 10° NNE 06:29:22 14° NE 06:31:19 10° E visible
21 May -2.3 06:27:41 10° NNW 06:30:57 42° NE 06:34:13 10° ESE visible
22 May -1.4 05:40:45 10° N 05:43:35 24° NE 05:46:27 10° ESE visible
23 May -0.8 04:55:41 14° NE 04:56:18 15° NE 04:58:16 10° E visible
23 May -3.7 06:29:20 10° WNW 06:32:44 64° SW 06:36:11 10° SE visible
24 May -3.6 05:44:15 42° NW 05:45:15 75° NE 05:48:42 10° SE visible
25 May -1.4 04:59:28 24° E 04:59:28 24° E 05:01:08 10° ESE visible
25 May -2.6 06:32:28 15° W 06:34:45 28° SSW 06:37:48 10° SE visible
26 May -3.0 05:47:27 39° SSW 05:47:27 39° SSW 05:50:26 10° SE visible
